GFSMA_700_temp_054.txt.gz
Temp
2 1 1 2 2 2 1 1 1 1 1 1 1 2 1 1 1 1 1 1 1 2 2 2 1 1 1 1 1 1 1 1 1 1 1 1 0 0 0 0 0 0 0
1 1 1 1 1 2 1 1 1 1 2 1 1 0 1 1 1 1 1 1 1 1 1 1 1 1 1 0 0 0 0 0 0 0 0 0 0 0 0 0 0 0 0
0 0 1 1 1 1 1 1 1 1 1 1 1 1 1 1 1 1 1 1 1 1 1 1 1 0 0 0 0 -0 -0 -0 -0 -0 -0 -0 -0 -0 -0 -0 -0 -0 -0
0 1 1 0 1 1 1 1 1 1 1 1 1 1 1 0 0 1 1 1 1 1 1 1 0 -0 -0 -0 -1 -1 -1 -1 -1 -1 -1 -1 -1 -1 -1 -1 -2 -2 -2
1 1 1 1 1 1 1 1 1 1 1 1 1 1 0 0 0 0 0 1 1 0 1 -0 -0 -0 -1 -1 -1 -1 -1 -1 -1 -2 -2 -2 -2 -2 -2 -3 -3 -3 -3
1 0 1 1 1 0 1 1 1 1 1 1 1 1 1 1 1 0 1 1 0 0 0 -1 -1 -1 -1 -1 -1 -1 -2 -2 -2 -2 -2 -2 -3 -3 -3 -4 -4 -4 -4
-0 -0 1 1 1 0 0 0 1 1 1 0 1 1 1 1 1 0 0 -0 -0 -0 -0 -1 -1 -1 -1 -1 -1 -2 -2 -2 -2 -2 -3 -3 -3 -4 -4 -5 -5 -5 -5
1 1 1 2 2 1 1 1 1 1 0 0 0 -0 0 0 1 -0 -0 -1 -1 -0 -1 -2 -2 -1 -1 -2 -2 -2 -2 -3 -3 -3 -3 -4 -4 -5 -5 -5 -6 -6 -6
1 1 1 1 1 1 1 1 1 1 0 0 -1 -0 0 -1 -0 -1 -2 -2 -2 -2 -2 -2 -2 -2 -2 -2 -2 -3 -3 -3 -3 -4 -5 -5 -5 -6 -6 -6 -6 -6 -7
2 2 2 1 0 1 1 1 1 1 0 1 0 -0 -0 -1 -1 -1 -2 -2 -2 -3 -3 -3 -3 -3 -2 -2 -3 -3 -4 -4 -4 -5 -5 -6 -7 -7 -7 -7 -7 -8 -8
2 2 2 1 1 1 0 0 0 0 0 -0 -0 -1 -1 -1 -2 -1 -1 -2 -2 -3 -3 -3 -3 -4 -4 -4 -4 -4 -4 -5 -6 -6 -6 -7 -8 -8 -8 -9 -9 -9 -9
3 2 2 1 0 0 0 1 0 -0 0 0 -1 0 -1 -1 -2 -1 -2 -2 -3 -3 -3 -4 -4 -4 -4 -4 -5 -5 -6 -7 -7 -7 -8 -8 -8 -8 -9 -10 -11 -11 -11
2 2 1 0 -0 1 1 -0 0 0 1 0 -0 -0 -0 -1 -1 -2 -2 -2 -3 -4 -4 -4 -4 -5 -5 -5 -6 -6 -7 -7 -8 -8 -9 -9 -9 -10 -11 -12 -12 -11 -11
2 1 1 1 1 0 1 1 0 1 1 1 -0 -0 -1 -1 -2 -2 -3 -3 -3 -3 -4 -4 -5 -5 -6 -6 -6 -7 -7 -8 -8 -9 -10 -10 -11 -12 -13 -12 -12 -13 -12
2 2 1 1 1 1 1 1 1 1 1 0 -1 -1 -1 -2 -3 -3 -3 -3 -3 -3 -3 -4 -5 -6 -6 -7 -7 -7 -8 -8 -9 -10 -11 -11 -12 -13 -13 -13 -14 -14 -14
1 2 2 1 1 1 1 1 1 1 0 -0 -1 -1 -1 -2 -2 -3 -4 -4 -4 -4 -4 -4 -5 -5 -6 -7 -8 -8 -8 -9 -10 -10 -11 -12 -12 -13 -13 -14 -14 -15 -15
1 1 1 1 2 2 2 1 1 1 -0 -1 -2 -1 -2 -3 -2 -3 -3 -4 -5 -5 -4 -4 -5 -5 -6 -7 -8 -9 -9 -10 -10 -11 -12 -13 -13 -14 -14 -14 -15 -15 -15
2 2 2 2 2 2 1 1 0 -0 -1 -2 -2 -3 -1 -2 -3 -3 -4 -4 -5 -5 -5 -5 -5 -6 -7 -8 -9 -9 -10 -11 -12 -12 -13 -13 -14 -14 -14 -14 -15 -15 -16
2 2 2 2 2 1 1 0 0 -1 -1 -2 -2 -2 -2 -3 -3 -4 -4 -5 -5 -5 -6 -6 -6 -7 -8 -9 -9 -10 -10 -11 -12 -13 -13 -13 -13 -14 -14 -14 -15 -15 -16
2 2 2 2 2 1 1 -0 -1 -2 -2 -2 -3 -3 -3 -3 -4 -5 -5 -5 -6 -6 -7 -7 -8 -8 -9 -9 -10 -11 -11 -12 -12 -13 -14 -14 -14 -14 -14 -15 -15 -15 -16
2 2 2 2 1 1 0 -0 -1 -2 -2 -2 -3 -4 -4 -4 -5 -5 -5 -6 -7 -7 -8 -8 -9 -9 -9 -10 -10 -11 -12 -13 -13 -13 -14 -14 -14 -14 -15 -14 -15 -16 -16
2 2 2 1 1 0 0 -0 -0 -1 -3 -3 -3 -5 -6 -6 -5 -6 -7 -7 -8 -8 -9 -9 -10 -10 -10 -10 -10 -11 -12 -13 -13 -13 -15 -15 -15 -15 -15 -15 -16 -16 -16
2 2 1 1 0 0 -0 -1 -2 -2 -3 -4 -5 -5 -5 -6 -6 -7 -8 -8 -9 -9 -10 -10 -10 -10 -10 -11 -11 -11 -12 -13 -13 -15 -16 -16 -16 -16 -15 -16 -17 -17 -16
2 2 1 1 0 -1 -1 -2 -2 -3 -4 -4 -5 -5 -6 -6 -7 -8 -8 -9 -9 -10 -10 -11 -11 -11 -11 -11 -12 -12 -13 -14 -14 -15 -16 -16 -16 -16 -16 -16 -17 -16 -17
2 1 1 0 -0 -1 -1 -2 -3 -3 -4 -5 -6 -6 -7 -8 -8 -8 -8 -9 -10 -10 -10 -11 -11 -11 -11 -12 -13 -14 -14 -15 -14 -15 -16 -16 -16 -16 -16 -16 -17 -17 -17
2 1 0 -0 -1 -1 -2 -2 -3 -4 -5 -6 -7 -7 -8 -8 -9 -9 -9 -10 -10 -10 -10 -10 -11 -11 -12 -12 -13 -14 -15 -15 -16 -16 -16 -17 -17 -16 -17 -17 -17 -17 -17

GFSMA_700_temp_057.txt.gz
Temp
2 1 2 1 2 3 2 2 1 1 1 1 1 1 1 1 1 1 1 1 1 2 2 2 2 2 2 1 1 1 1 1 1 1 1 1 1 1 0 0 1 1 1
1 1 2 2 2 2 2 2 1 1 1 1 2 1 1 1 1 1 1 1 1 1 2 2 2 2 1 1 1 0 0 0 0 1 1 0 0 0 0 0 0 0 0
1 0 1 1 2 2 2 1 1 1 1 1 2 1 1 1 1 1 1 1 1 1 1 1 1 1 1 0 0 -0 -0 -0 -0 -0 0 0 -0 -0 -0 -1 -1 -1 -1
-0 -0 0 -0 1 1 1 1 1 1 1 1 1 1 1 1 1 1 1 1 1 1 0 0 0 0 0 -1 -1 -0 -0 -0 -0 -0 -0 -0 -1 -1 -1 -1 -1 -1 -2
-0 -2 -1 1 1 1 1 1 1 1 1 1 1 1 1 1 1 1 1 1 1 0 0 -0 0 0 0 -0 -1 -1 -1 -1 -1 -0 -1 -1 -1 -1 -2 -2 -2 -2 -2
-2 -1 -1 1 1 1 0 1 1 1 1 1 1 1 1 1 0 1 1 0 0 -0 -0 -0 0 0 -0 -1 -1 -2 -2 -2 -1 -1 -2 -2 -2 -2 -2 -2 -3 -3 -3
-2 -1 0 1 0 0 1 1 1 1 0 0 1 1 1 0 0 0 0 -0 -0 -1 -1 -1 -1 -0 -1 -1 -1 -2 -2 -2 -2 -2 -2 -2 -3 -3 -3 -3 -4 -4 -4
-1 -0 1 1 0 0 1 1 1 0 0 0 0 -0 -0 0 0 -0 -0 -1 -1 -1 -1 -1 -1 -2 -1 -1 -1 -2 -2 -2 -3 -3 -3 -3 -3 -4 -4 -4 -5 -5 -5
-1 0 1 1 1 1 1 0 0 0 0 -0 -0 -0 -0 0 0 -0 -0 -1 -1 -1 -2 -1 -1 -2 -2 -2 -1 -2 -2 -2 -3 -3 -4 -4 -5 -5 -5 -5 -5 -5 -6
-0 1 1 1 1 1 1 1 1 1 0 0 -0 -0 0 0 0 0 -1 -1 -2 -1 -2 -2 -3 -3 -3 -3 -3 -2 -3 -3 -4 -4 -5 -5 -5 -6 -6 -6 -6 -7 -7
1 1 1 1 1 1 1 1 0 0 0 -0 0 0 -0 -1 -1 -0 -1 -2 -2 -1 -2 -3 -3 -3 -3 -4 -4 -4 -4 -4 -5 -5 -5 -6 -7 -7 -7 -7 -8 -8 -8
1 2 1 2 1 1 0 1 1 0 0 -0 -0 -0 -1 -1 0 -1 -1 -2 -1 -2 -3 -3 -3 -4 -4 -4 -4 -4 -5 -5 -6 -7 -7 -8 -8 -9 -9 -9 -9 -9 -9
2 2 2 1 1 1 0 -0 0 0 0 -0 0 -0 -0 -1 -0 -1 -1 -2 -2 -3 -3 -3 -3 -3 -3 -4 -5 -5 -5 -6 -7 -7 -8 -8 -9 -9 -10 -11 -11 -11 -11
2 2 2 1 0 1 1 0 0 0 0 0 1 0 -1 -0 -1 -1 -2 -2 -2 -3 -4 -3 -3 -3 -4 -5 -5 -5 -6 -6 -7 -8 -8 -9 -9 -10 -11 -11 -12 -12 -12
2 2 2 2 1 1 1 0 1 0 0 1 1 1 0 -0 -0 -2 -2 -3 -3 -3 -3 -3 -3 -4 -5 -5 -5 -6 -6 -7 -7 -7 -8 -9 -9 -10 -11 -12 -12 -13 -13
2 1 1 1 1 1 1 0 1 1 1 1 1 0 -1 -2 -1 -2 -2 -2 -3 -3 -3 -3 -3 -4 -5 -5 -6 -6 -6 -7 -7 -8 -9 -9 -10 -11 -12 -12 -13 -14 -14
2 0 0 2 2 1 1 1 1 1 1 0 0 -1 -1 -2 -2 -3 -3 -3 -3 -3 -4 -3 -4 -5 -5 -5 -6 -6 -7 -7 -8 -9 -9 -10 -11 -12 -12 -13 -13 -14 -14
2 2 1 0 1 1 1 1 1 1 1 0 -0 -1 -1 -2 -2 -3 -3 -3 -4 -4 -4 -4 -5 -5 -5 -6 -6 -7 -8 -8 -9 -10 -10 -11 -11 -12 -12 -12 -13 -14 -14
2 2 2 1 1 1 1 1 1 1 1 -0 -1 -2 -1 -2 -3 -3 -3 -3 -4 -3 -4 -5 -5 -5 -6 -7 -7 -8 -9 -9 -10 -10 -10 -11 -11 -12 -13 -13 -13 -14 -14
2 2 2 1 1 1 2 1 1 1 0 -1 -2 -2 -2 -3 -3 -3 -3 -4 -4 -4 -5 -5 -6 -6 -7 -8 -8 -9 -9 -9 -9 -10 -10 -11 -12 -13 -13 -14 -14 -14 -14
3 2 2 2 2 2 1 1 1 1 -0 -1 -2 -3 -3 -3 -4 -4 -4 -5 -6 -6 -6 -6 -7 -7 -8 -8 -9 -9 -9 -9 -9 -10 -10 -11 -12 -13 -14 -14 -15 -14 -14
3 2 2 2 2 1 1 1 1 0 -0 -2 -2 -3 -3 -4 -4 -4 -4 -6 -6 -6 -7 -7 -8 -8 -9 -9 -10 -10 -10 -10 -10 -10 -11 -11 -12 -13 -14 -16 -16 -16 -15
2 2 2 2 2 1 1 0 -0 -0 -1 -2 -2 -2 -3 -5 -5 -5 -6 -6 -7 -7 -8 -8 -9 -9 -9 -10 -10 -10 -10 -10 -10 -11 -12 -12 -13 -13 -15 -16 -16 -16 -16
2 2 1 1 1 1 0 0 -0 -1 -1 -2 -2 -3 -5 -5 -5 -6 -6 -7 -8 -8 -9 -9 -10 -10 -11 -11 -11 -11 -11 -11 -11 -11 -13 -14 -14 -14 -15 -16 -16 -16 -16
2 1 1 1 1 1 0 -0 -1 -1 -2 -3 -4 -5 -5 -5 -6 -7 -7 -8 -9 -9 -10 -10 -10 -11 -11 -11 -11 -12 -12 -12 -12 -12 -14 -15 -15 -16 -16 -16 -17 -16 -16
1 1 1 1 1 0 -0 -1 -2 -3 -4 -4 -4 -5 -6 -7 -7 -8 -8 -9 -9 -10 -10 -10 -11 -11 -11 -12 -12 -13 -13 -13 -14 -14 -15 -16 -16 -18 -17 -17 -17 -17 -17

GFSMA_700_temp_063.txt.gz
Temp
2 2 2 2 2 2 2 1 2 2 2 2 2 2 2 2 2 2 2 2 2 2 2 2 2 2 3 3 3 3 2 2 2 2 1 1 1 1 1 1 1 1 1
1 1 2 1 1 1 1 2 2 2 1 1 1 2 2 2 2 1 1 2 2 2 2 2 2 2 2 2 2 2 2 2 2 2 1 1 0 0 0 0 0 -0 0
-0 1 1 1 1 1 2 2 1 1 1 1 1 1 1 1 2 2 1 1 1 1 2 1 1 1 2 1 1 1 1 1 1 1 1 0 0 0 0 0 -0 -0 -0
-0 0 1 0 1 -0 1 1 1 1 1 1 1 1 1 1 2 2 1 1 1 1 1 1 1 1 1 1 1 1 1 1 1 0 0 -0 -0 0 0 -0 0 0 -0
-1 0 0 0 0 0 1 1 0 0 1 1 1 1 1 1 1 1 1 1 1 0 0 0 0 -0 -0 -0 -0 -0 0 0 0 0 0 0 -0 -1 -0 -0 -0 -1 -1
-1 -1 -1 -1 -1 -1 0 1 0 0 0 0 1 1 1 1 1 1 1 0 0 0 -0 -0 -1 -1 -1 -0 -1 -1 -1 -1 -1 -1 -1 -1 -1 -1 -1 -1 -1 -1 -1
-1 -1 -2 -2 -1 -1 -1 0 -0 0 0 -0 0 0 0 0 0 0 0 -0 -1 -1 -1 -1 -2 -2 -1 -1 -1 -1 -1 -2 -2 -2 -2 -2 -2 -2 -1 -2 -2 -2 -2
-2 -1 -2 -2 -2 -1 -1 -0 -0 0 0 0 0 0 0 1 0 0 -0 -0 -1 -1 -1 -1 -2 -1 -1 -1 -1 -1 -1 -1 -1 -2 -2 -2 -2 -2 -2 -2 -3 -3 -3
-2 -2 -2 -2 -2 -1 -2 -1 0 0 0 -0 0 0 0 1 0 0 0 -0 -0 -1 -2 -1 -1 -1 -1 -2 -2 -2 -2 -2 -2 -2 -2 -2 -2 -2 -3 -3 -3 -3 -3
-2 -2 -2 -2 -1 -2 -1 -1 -1 -0 0 -0 0 1 0 1 1 1 0 -0 -0 -1 -2 -1 -1 -2 -1 -2 -2 -2 -2 -2 -2 -2 -2 -3 -4 -3 -3 -3 -3 -4 -4
-2 -2 -2 -2 -1 -1 -1 -1 -1 -0 -0 0 0 0 0 0 0 0 1 0 -1 -1 -2 -1 -2 -2 -2 -3 -2 -3 -3 -3 -3 -3 -3 -3 -4 -5 -5 -5 -7 -7 -7
-2 -2 -2 -1 -1 -1 -2 -1 -1 -0 -0 0 -0 -0 -0 -0 -0 -0 -1 -0 -1 -1 -2 -1 -2 -2 -3 -3 -3 -3 -4 -4 -4 -4 -4 -5 -6 -6 -6 -7 -8 -8 -9
-1 -2 -1 -1 -1 -1 -1 -1 -1 -0 -0 0 -1 -0 -0 0 -1 -1 -1 -1 -1 -1 -1 -2 -3 -3 -2 -3 -3 -3 -4 -3 -4 -4 -4 -5 -5 -5 -6 -6 -7 -7 -8
-0 -1 -1 -0 -0 1 0 -0 -0 0 0 -1 -0 -0 -1 -1 -1 -1 -1 -1 -1 -1 -1 -2 -2 -3 -2 -3 -2 -3 -4 -4 -4 -4 -5 -5 -5 -6 -6 -6 -7 -7 -8
1 1 1 2 2 1 1 -0 0 1 1 -1 -0 -0 -0 -0 -0 -1 -1 -1 -0 -1 -2 -2 -3 -3 -3 -4 -4 -4 -4 -4 -4 -4 -5 -5 -6 -6 -7 -7 -8 -8 -8
3 2 2 2 1 1 0 -0 0 1 0 -0 -0 -0 0 0 0 -0 -0 0 -1 -1 -2 -2 -3 -3 -4 -4 -4 -5 -4 -4 -5 -5 -6 -6 -6 -7 -7 -8 -8 -8 -9
3 2 2 2 1 1 0 0 0 -0 0 0 0 0 0 -0 -0 -0 -0 -0 -1 -1 -2 -3 -3 -3 -4 -4 -5 -5 -5 -5 -6 -6 -6 -7 -7 -7 -8 -8 -8 -9 -9
3 2 2 2 1 0 0 -0 -0 -0 -0 -0 -0 -0 -1 -1 0 -0 -0 -1 -1 -1 -2 -3 -3 -3 -4 -5 -6 -6 -6 -6 -6 -7 -7 -8 -8 -8 -8 -9 -9 -9 -9
3 2 2 1 0 -0 -0 -0 -1 -1 -0 -1 -0 0 -0 -0 -0 -1 -1 -1 -1 -2 -3 -4 -4 -4 -5 -6 -6 -6 -6 -7 -7 -8 -8 -8 -9 -9 -9 -9 -10 -10 -10
2 2 2 1 1 1 0 -0 -0 0 -0 -0 -0 0 0 -0 0 -1 -1 -1 -2 -2 -3 -3 -4 -4 -5 -5 -6 -6 -7 -7 -8 -8 -9 -9 -9 -10 -10 -10 -10 -10 -10
3 2 2 2 2 2 1 1 1 0 0 0 0 0 1 1 1 -1 -1 -2 -3 -3 -3 -4 -5 -5 -6 -6 -6 -7 -7 -8 -9 -9 -9 -10 -10 -10 -10 -11 -11 -11 -11
3 2 2 2 2 2 2 2 1 1 2 0 1 1 1 1 -1 -2 -2 -2 -3 -3 -4 -5 -6 -6 -6 -6 -7 -8 -8 -9 -9 -9 -10 -10 -11 -11 -11 -11 -11 -12 -12
4 3 3 3 2 1 2 2 1 1 2 1 1 1 1 0 -1 -2 -2 -3 -3 -4 -5 -6 -7 -6 -6 -7 -8 -8 -9 -9 -9 -11 -11 -10 -11 -11 -11 -12 -12 -13 -13
3 3 3 2 2 2 2 1 2 2 1 1 1 1 -0 -1 -3 -1 -3 -3 -4 -4 -6 -7 -6 -6 -7 -9 -9 -10 -10 -10 -11 -12 -12 -11 -12 -11 -12 -13 -13 -13 -14
3 3 2 2 2 2 1 1 1 1 1 0 0 0 -1 -1 -2 -2 -3 -4 -5 -6 -7 -7 -7 -8 -10 -11 -12 -12 -12 -12 -11 -11 -12 -12 -12 -12 -12 -13 -14 -14 -15
2 2 2 2 2 2 1 1 1 0 0 -1 -1 -1 -1 -2 -3 -4 -5 -6 -6 -7 -7 -7 -9 -11 -11 -11 -12 -12 -13 -12 -12 -13 -13 -13 -13 -14 -13 -14 -14 -15 -16

GFSMA_700_temp_069.txt.gz
Temp
1 1 2 2 2 3 2 2 2 2 2 2 2 2 2 2 2 2 2 2 3 3 3 3 3 3 3 3 2 2 2 2 2 3 3 2 2 2 2 2 2 2 2
-0 1 1 2 2 2 2 2 2 2 2 2 2 2 2 2 2 2 2 2 2 2 2 2 2 2 2 2 2 2 2 2 2 3 3 2 2 2 2 2 2 2 2
-1 1 0 1 2 2 2 2 1 1 1 1 1 2 1 2 2 2 2 2 2 2 2 2 2 2 2 2 2 2 2 2 2 2 2 2 2 1 2 1 1 1 1
-0 0 1 1 2 2 1 1 1 1 1 1 1 1 1 1 1 1 1 2 2 2 2 2 2 2 2 2 2 1 1 1 2 2 1 1 1 1 1 1 1 1 1
0 0 1 0 1 1 1 1 1 1 1 1 1 0 1 1 1 1 1 1 1 2 2 2 1 2 1 1 1 1 1 1 1 1 1 1 1 1 1 1 1 1 1
-0 0 0 0 1 0 1 0 0 1 1 1 -0 0 0 1 1 1 1 1 1 1 1 2 1 1 1 1 1 1 1 1 1 1 1 0 0 0 1 1 1 1 0
-2 -2 -1 -1 -1 -1 -1 -1 0 1 1 0 0 0 0 0 1 1 1 1 1 1 1 1 1 1 1 1 1 0 -0 0 -1 -1 -0 -0 -0 0 0 0 0 0 -0
-1 -1 -0 -0 -1 -1 -1 -0 0 0 -0 -0 -0 -0 -0 0 1 0 1 0 0 1 1 1 0 0 -0 1 0 -0 0 -0 -0 -0 -1 -1 -1 -0 -0 -0 -1 -1 -1
-1 -1 -1 -1 -1 -2 -1 -1 0 -0 -0 -0 -0 -1 -0 0 -0 0 0 0 0 0 0 0 0 0 -0 -1 -0 1 0 0 0 0 -0 -0 -1 -1 -2 -1 -1 -1 -1
-1 -1 -1 -2 -1 -2 -1 -1 -0 -0 -0 -1 -1 -0 -0 -0 -0 0 -0 1 0 1 0 0 -0 -0 -0 -0 0 -0 0 -0 -1 -1 -1 -2 -2 -2 -2 -2 -2 -2 -2
-2 -1 -1 -1 -1 -1 -1 -1 -1 -1 -0 -1 -1 -1 -0 -0 -0 -0 -0 -1 0 1 0 -0 -0 -1 -1 -1 -0 0 -1 -1 -1 -1 -2 -2 -3 -2 -3 -3 -3 -3 -3
-1 -2 -2 -1 -1 -1 -1 -2 -1 -1 -1 -1 -1 -1 -0 0 -0 -0 0 0 -1 -1 0 -0 -1 0 -0 -0 -1 -1 -1 -1 -2 -2 -3 -3 -2 -3 -3 -3 -3 -4 -3
-0 -1 -1 -1 -1 -1 -1 -1 -1 -1 -1 -1 -1 -0 -0 0 -0 -0 -1 -0 -1 -0 -0 -1 -1 -0 -1 -1 -0 -0 -1 -1 -2 -2 -3 -3 -2 -3 -3 -3 -4 -4 -4
0 -0 -0 -1 -1 -1 -1 -0 -1 -1 -1 -1 -0 -0 -0 -0 -0 0 0 0 -1 -0 0 0 -0 -0 -1 -1 -0 -1 -2 -2 -2 -2 -2 -2 -3 -3 -3 -4 -4 -4 -4
0 -0 -0 -0 -0 -0 -0 -0 -0 -1 -1 -1 -1 -0 -0 0 -0 0 0 0 -0 -1 0 -0 -0 0 -1 -1 -1 -1 -2 -2 -1 -2 -3 -3 -3 -3 -4 -4 -4 -4 -4
1 0 -0 -0 0 0 0 -0 -1 -0 -0 0 0 1 1 1 0 0 0 0 -0 -1 -0 -1 -1 -1 -0 -1 -1 -1 -2 -1 -2 -3 -3 -2 -3 -3 -4 -4 -4 -5 -5
4 3 2 1 0 0 0 -0 0 1 1 1 1 1 1 1 0 0 -0 -0 -0 -0 -1 -1 -1 -1 -1 -1 -1 -1 -2 -2 -2 -2 -3 -3 -3 -4 -4 -5 -5 -6 -6
4 4 3 3 3 2 2 1 1 2 2 2 1 1 2 1 1 -0 -0 -0 -0 -0 -1 -1 -1 -1 -1 -2 -1 -2 -2 -2 -2 -2 -2 -3 -4 -4 -5 -5 -6 -7 -7
4 4 3 3 3 3 3 3 3 2 2 2 2 1 1 1 -1 -1 -0 -1 -0 -1 -1 -1 -0 -0 -1 -1 -0 -1 -2 -3 -4 -4 -3 -3 -4 -5 -6 -6 -7 -7 -8
4 4 4 4 4 3 3 3 2 2 2 2 1 1 1 1 -0 0 -0 -0 -0 -0 -0 -1 -0 -1 -1 -1 -2 -2 -3 -3 -3 -4 -4 -4 -5 -5 -6 -7 -8 -8 -9
4 4 4 4 3 3 3 3 2 2 1 1 1 1 1 0 -0 -0 0 -0 -0 0 -0 -1 -1 -1 -1 -1 -1 -2 -3 -3 -4 -4 -5 -5 -5 -6 -7 -8 -9 -10 -10
4 4 4 4 3 3 3 3 2 2 2 1 1 1 -0 0 -0 0 0 0 0 -0 -1 -1 -1 -0 -1 -2 -2 -3 -3 -3 -4 -4 -5 -6 -6 -7 -9 -10 -10 -10 -11
5 5 5 4 4 3 3 3 2 2 1 1 1 1 -0 -0 -0 -0 -0 -0 -0 -0 -0 -1 -1 -0 -1 -2 -2 -3 -3 -4 -5 -6 -6 -6 -8 -8 -10 -10 -10 -11 -11
6 5 5 4 4 4 4 3 3 2 1 1 1 2 1 1 0 0 -0 -0 0 -1 0 -1 -1 -1 -2 -3 -3 -3 -4 -5 -5 -6 -6 -7 -9 -9 -10 -10 -11 -11 -12
5 5 5 4 4 4 3 3 3 3 2 2 2 2 2 1 1 1 -0 -0 -0 -1 -1 -1 -1 -3 -3 -3 -4 -5 -5 -5 -6 -7 -8 -10 -9 -9 -10 -11 -11 -12 -12
5 5 5 4 4 3 3 3 3 2 2 2 2 1 1 1 1 -0 -0 0 -0 -0 -0 -2 -3 -3 -4 -4 -5 -6 -6 -7 -8 -8 -10 -10 -11 -12 -11 -12 -12 -13 -13

GFSMA_700_temp_075.txt.gz
Temp
3 3 3 3 3 3 3 3 3 3 3 3 3 4 3 3 4 4 3 3 3 3 3 3 3 4 4 4 4 4 4 4 4 4 4 4 3 4 3 3 3 3 3
3 3 2 3 3 3 3 3 3 3 2 2 2 4 3 3 3 3 3 2 3 3 3 3 3 3 3 3 3 3 3 3 3 3 3 3 3 3 3 3 2 2 2
2 2 2 2 2 2 2 2 2 2 2 2 2 4 3 3 3 3 2 2 2 2 2 3 3 3 3 3 3 3 3 2 3 3 2 3 2 2 2 2 2 2 2
2 2 2 2 2 2 2 2 2 2 2 2 2 3 3 3 2 2 2 2 2 2 2 2 2 2 2 2 2 2 2 2 2 2 2 2 2 2 2 2 1 1 1
2 2 2 1 1 1 1 1 2 2 2 2 2 1 2 3 2 2 2 2 2 1 2 2 2 2 2 2 2 2 2 2 2 2 2 2 2 1 1 1 1 0 0
2 2 1 1 -1 0 1 2 1 2 1 2 2 2 1 1 2 2 1 1 1 1 1 2 2 2 2 2 2 2 2 2 1 1 1 1 1 1 1 1 0 -0 -0
2 1 1 1 -0 -1 0 1 1 1 1 1 1 1 1 0 1 1 2 1 1 1 1 1 1 1 1 1 1 1 1 1 2 2 2 1 1 1 0 -0 -0 -0 -0
1 1 1 1 -0 -0 -1 -0 0 1 1 1 1 1 1 1 1 1 1 1 1 1 1 1 1 0 1 1 1 1 1 2 1 1 1 1 0 1 0 -0 -0 -0 -1
1 1 1 1 0 0 -0 -0 0 1 1 0 0 -1 -0 0 1 0 1 0 0 0 0 1 1 1 1 1 1 1 1 1 1 1 -0 -0 -1 -1 -1 -1 -1 -1 -1
1 1 1 1 0 1 0 -1 0 0 0 1 -1 -0 -0 -0 -0 -0 0 0 0 0 1 0 0 0 1 1 1 1 1 1 0 0 -0 -0 -1 -1 -1 -1 -1 -1 -1
1 0 1 1 -0 -1 -1 -1 -0 -0 -0 -1 -1 -1 -0 -1 -1 -0 0 -1 -0 0 0 1 0 0 1 1 1 2 1 0 0 0 -0 -1 -1 -1 -1 -1 -1 -2 -2
1 1 -0 -0 -0 -1 -0 -0 -0 -0 -1 -1 -1 -1 -1 -1 -1 -1 -0 0 -0 -0 -0 0 0 1 1 0 0 -0 -1 -1 -0 0 0 -1 -0 -1 -2 -2 -2 -1 -1
1 1 1 0 -0 -0 0 -0 -1 -1 -1 -1 -1 -1 -1 -1 -1 -1 -1 -1 -1 -1 -1 0 0 -0 0 0 0 -1 -1 -0 -1 -1 -1 -1 -1 -1 -1 -1 -2 -2 -3
1 1 1 0 -0 -1 -0 -0 -0 -1 -1 -1 -1 -1 -1 -1 -1 -1 -1 -1 -1 -1 -1 -0 -0 0 -0 -0 -0 -0 -1 -0 -1 -1 -1 -1 -1 -1 -2 -1 -2 -2 -3
1 1 -0 0 0 -1 -1 -1 -1 -1 -1 -2 -1 -1 -1 -1 -1 -1 -1 -1 -1 -1 -1 0 -0 0 -0 -1 -1 -1 -0 -0 -1 -1 -1 -1 -1 -2 -2 -2 -2 -2 -3
1 1 1 1 0 -0 -1 -2 -1 -1 -2 -2 -1 -1 -1 -1 -1 -1 -1 -1 -1 -1 -1 0 1 1 0 -0 -1 -1 -0 -1 -1 -1 -2 -1 -1 -2 -2 -2 -3 -2 -3
2 2 0 -0 -0 0 0 -1 -1 -1 -1 -2 -1 -0 -1 -1 -1 -1 -1 -1 -1 -1 -1 0 0 0 -0 -0 -1 -1 -1 -1 -1 -1 -1 -1 -1 -2 -2 -2 -2 -3 -4
4 4 3 3 2 1 0 -1 -1 -0 -0 0 -0 -1 -0 -1 -1 -0 0 -0 -1 -0 -0 0 -0 0 -0 0 -0 -1 -1 -1 -1 -2 -2 -2 -2 -2 -2 -2 -2 -3 -4
5 5 5 5 4 4 2 2 2 1 1 1 -0 -0 1 0 1 1 1 1 1 1 1 0 -1 -1 -1 -0 0 -0 -0 -1 -1 -1 -1 -1 -2 -2 -2 -2 -2 -3 -4
5 5 5 5 4 4 4 4 3 3 3 3 2 2 2 2 2 2 2 2 2 1 -0 -0 -0 -0 -1 -1 -1 -1 -0 -1 -1 -1 -1 -2 -1 -2 -2 -2 -3 -3 -4
5 5 5 5 4 4 4 4 4 4 3 3 3 3 2 2 2 2 2 1 1 1 0 -0 -1 -0 -0 -1 -0 -1 -1 -1 -1 -1 -2 -1 -2 -2 -2 -2 -3 -4 -5
5 5 5 5 4 4 4 4 4 3 3 3 3 2 2 2 2 2 1 1 1 1 0 -0 0 -1 -0 -0 -0 -0 -1 -1 -1 -1 -1 -1 -1 -1 -2 -4 -5 -5 -5
5 5 5 4 4 4 4 4 3 3 3 3 2 2 2 2 2 1 1 1 1 0 0 -0 -0 -0 -1 -1 -0 -1 -1 -1 -2 -1 -2 -2 -3 -3 -5 -5 -5 -5 -6
6 6 6 5 5 5 5 4 4 3 3 3 3 2 2 2 2 1 1 1 0 -0 -0 -1 -1 -0 -0 -0 -0 -1 -2 -2 -2 -2 -2 -4 -5 -5 -5 -5 -6 -6 -6
6 6 6 6 5 5 5 5 4 4 3 3 3 3 3 3 2 2 1 -0 -0 -0 -1 -1 -0 -1 -1 -0 -1 -1 -1 -2 -3 -3 -4 -5 -6 -6 -6 -6 -6 -6 -7
4 4 5 5 5 5 5 5 4 4 4 3 3 3 3 2 1 1 1 -0 -1 -1 -0 0 -0 -0 -0 -1 -1 -2 -3 -2 -6 -6 -6 -6 -7 -6 -6 -6 -7 -9 -10